KB1JDX Weather Reports


Display with metric or nautical units.
time (UTC)temp
F
wind
direction
speed
MPH
gust
MPH
rain 1hr
in
rain 24hr
in
rain mn
in
humidity
%
barometer
mb
20170823165134 81 299 0.0 5.0 0.00 0.07 0.07 47 1008.7
20170823164937 81 289 0.0 5.0 0.00 0.07 0.07 47 1008.7
20170823162937 80 331 0.0 7.0 0.00 0.07 0.07 52 1008.7
20170823160937 80 311 0.0 7.0 0.00 0.07 0.07 51 1008.9
20170823155136 80 306 2.0 5.0 0.00 0.07 0.07 48 1008.9
20170823154938 80 278 5.0 5.0 0.00 0.07 0.07 47 1009.0
20170823152939 80 281 0.0 4.0 0.00 0.07 0.07 55 1008.8
20170823150937 78 310 2.0 4.0 0.00 0.07 0.07 57 1008.8
20170823145135 76 355 0.0 5.0 0.00 0.07 0.07 65 1008.8
20170823144937 76 327 0.0 5.0 0.00 0.07 0.07 65 1008.8
20170823142939 76 309 1.0 4.0 0.00 0.07 0.07 70 1008.8
20170823140938 77 301 0.0 4.0 0.00 0.07 0.07 69 1008.6
20170823135135 75 311 0.0 5.0 0.00 0.07 0.07 74 1008.3
20170823134939 75 311 0.0 5.0 0.00 0.07 0.07 73 1008.3
20170823132939 75 326 0.0 4.0 0.00 0.07 0.07 75 1008.3
20170823130938 74 245 0.0 4.0 0.00 0.07 0.07 77 1008.1
20170823125136 73 282 0.0 0.0 0.00 0.07 0.07 77 1007.9
20170823124939 73 271 0.0 0.0 0.00 0.07 0.07 78 1007.8
20170823122938 73 224 0.0 0.0 0.00 0.07 0.07 77 1007.7
20170823120938 72 220 0.0 0.0 0.00 0.07 0.07 77 1007.6
20170823115137 71 220 0.0 0.0 0.00 0.07 0.07 77 1007.3
20170823114939 71 220 0.0 0.0 0.00 0.07 0.07 77 1007.3
20170823112939 71 220 0.0 0.0 0.00 0.07 0.07 77 1007.1
20170823110939 71 220 0.0 0.0 0.00 0.07 0.07 77 1006.8
20170823105137 71 220 0.0 6.0 0.00 0.07 0.07 77 1006.5
20170823104939 71 220 0.0 6.0 0.00 0.07 0.07 77 1006.5
20170823102940 71 220 0.0 6.0 0.00 0.07 0.07 77 1006.6
20170823100938 71 214 0.0 6.0 0.00 0.07 0.07 77 1006.6
20170823095135 71 213 0.0 7.0 0.00 0.07 0.07 77 1006.3
20170823092939 71 202 0.0 10.0 0.00 0.07 0.07 77 1006.3
20170823090938 71 219 0.0 10.0 0.00 0.07 0.07 77 1006.1
20170823085137 71 198 0.0 6.0 0.00 0.07 0.07 77 1006.1
20170823084939 71 250 5.0 6.0 0.00 0.07 0.07 77 1006.1
20170823082939 72 218 6.0 6.0 0.00 0.07 0.07 77 1006.0
20170823080938 72 184 0.0 6.0 0.00 0.07 0.07 77 1005.7
20170823075136 72 192 0.0 9.0 0.00 0.07 0.07 77 1005.6
20170823074938 73 195 0.0 9.0 0.00 0.07 0.07 77 1005.7
20170823072939 73 217 0.0 10.0 0.05 0.07 0.07 77 1006.0
20170823070939 73 219 0.0 10.0 0.05 0.07 0.07 77 1006.1
20170823065137 74 217 4.0 10.0 0.05 0.07 0.07 77 1006.2
20170823064939 74 232 6.0 10.0 0.05 0.07 0.07 77 1006.1
20170823062939 74 230 10.0 11.0 0.00 0.02 0.02 77 1006.4
20170823060940 75 244 7.0 11.0 0.00 0.02 0.02 77 1006.4
20170823055137 75 221 1.0 11.0 0.02 0.02 0.02 77 1006.5
20170823054939 75 202 0.0 11.0 0.02 0.02 0.02 77 1006.6
20170823052938 75 191 7.0 13.0 0.02 0.02 0.02 77 1006.7
20170823050939 75 232 4.0 13.0 0.02 0.02 0.02 77 1006.9
20170823045136 76 215 4.0 14.0 0.00 0.00 0.00 77 1006.9
20170823044940 76 220 0.0 14.0 0.00 0.00 0.00 77 1006.9
20170823042938 76 170 0.0 10.0 0.00 0.00 0.00 77 1006.8
20170823040939 76 236 0.0 10.0 0.00 0.00 0.00 77 1006.8
20170823035137 75 177 0.0 16.0 0.00 0.00 0.00 77 1006.5
20170823034940 75 245 1.0 16.0 0.00 0.00 0.00 77 1006.5
20170823032940 75 247 4.0 13.0 0.00 0.00 0.00 77 1006.4
20170823030940 76 171 6.0 13.0 0.00 0.00 0.00 77 1006.6
20170823025138 76 198 8.0 11.0 0.00 0.00 0.00 77 1006.9
20170823024940 76 188 3.0 11.0 0.00 0.00 0.00 77 1006.9
20170823022940 76 211 4.0 9.0 0.00 0.00 0.00 77 1007.1
20170823020940 76 175 0.0 9.0 0.00 0.00 0.00 77 1007.4
20170823015136 76 161 1.0 9.0 0.00 0.00 0.00 77 1007.4
20170823014939 76 234 0.0 9.0 0.00 0.00 0.00 77 1007.4
20170823012939 76 239 7.0 10.0 0.00 0.00 0.00 77 1007.6
20170823010939 76 200 0.0 10.0 0.00 0.00 0.00 77 1008.0
20170823005137 77 204 0.0 15.0 0.00 0.00 0.00 77 1008.3
20170823004939 77 212 0.0 15.0 0.00 0.00 0.00 77 1008.4
20170823002939 77 283 0.0 15.0 0.00 0.00 0.00 76 1008.4
20170823000939 77 175 0.0 15.0 0.00 0.00 0.00 76 1008.4
20170822235136 78 238 8.0 15.0 0.00 0.00 0.00 76 1008.5
20170822234941 78 196 0.0 15.0 0.00 0.00 0.00 76 1008.4
20170822232939 78 164 0.0 14.0 0.00 0.00 0.00 76 1008.8
20170822230940 79 217 0.0 14.0 0.00 0.00 0.00 76 1008.8
20170822225137 79 219 0.0 13.0 0.00 0.00 0.00 76 1008.8
20170822224940 79 232 1.0 13.0 0.00 0.00 0.00 76 1008.8
20170822220940 81 184 6.0 20.0 0.00 0.00 0.00 76 1009.4
20170822215138 81 165 0.0 22.0 0.00 0.00 0.00 76 1009.5
20170822212940 81 186 8.0 18.0 0.00 0.00 0.00 75 1009.8
20170822210939 83 200 13.0 18.0 0.00 0.00 0.00 72 1009.9
20170822205137 85 211 5.0 21.0 0.00 0.00 0.00 71 1009.8
20170822204940 85 182 8.0 21.0 0.00 0.00 0.00 71 1009.7
20170822202939 86 228 5.0 19.0 0.00 0.00 0.00 69 1009.8
20170822200940 86 236 8.0 19.0 0.00 0.00 0.00 66 1010.0
20170822195138 87 200 0.0 16.0 0.00 0.00 0.00 65 1010.3
20170822194940 87 192 1.0 16.0 0.00 0.00 0.00 64 1010.2
20170822192940 87 202 6.0 16.0 0.00 0.00 0.00 64 1010.8
20170822190940 87 247 3.0 16.0 0.00 0.00 0.00 64 1011.2
20170822185137 87 244 8.0 19.0 0.00 0.00 0.00 65 1011.6
20170822184940 87 176 4.0 19.0 0.00 0.00 0.00 65 1011.8
20170822182940 87 207 8.0 16.0 0.00 0.00 0.00 65 1012.0
20170822180939 87 243 10.0 16.0 0.00 0.00 0.00 65 1012.6
20170822175138 86 247 7.0 14.0 0.00 0.00 0.00 67 1012.7
20170822172940 85 195 7.0 15.0 0.00 0.00 0.00 69 1012.9